Location: Grundy Observatory
(40.0525°N, 76.3328°W)
Time: 22:42:56
(UTC-05:00)

Daily predictions for brighter satellites

Satellite Brightness Start Highest point End
(mag) Time Altitude Azimuth Time Altitude Azimuth Time Altitude Azimuth
Cosmos 540 Rocket 3.7 17:33:53 10° S 17:38:54 54° ESE 17:43:57 10° NNE
USA 215 3.9 17:36:51 10° E 17:42:41 36° NNE 17:48:32 10° NW
Cosmos 2237 Rocket 2.3 17:37:27 10° S 17:42:58 63° ESE 17:48:33 10° NNE
Cosmos 44 Rocket 3.7 17:38:18 10° SW 17:43:25 69° WNW 17:48:28 10° NNE
Cosmos 2084 3.7 17:39:54 10° SW 17:43:45 57° NW 17:47:31 10° NNE
NOSS 0 Rocket 4.0 17:38:49 10° SSW 17:45:02 79° ESE 17:51:16 10° NNE
COSMOS 2428 4.0 17:42:31 10° SW 17:47:52 40° WNW 17:53:15 10° N
BREEZE-M DEB (TANK) 3.4 17:40:43 10° NW 17:49:00 66° SW 17:52:07 10° SE
SL-16 R/B 3.0 17:45:13 10° SSE 17:50:02 30° ESE 17:54:53 10° NE
Cosmos 1340 Rocket 3.6 17:46:52 10° SSE 17:50:21 31° E 17:53:50 10° NNE
Cosmos 1300 2.7 17:46:42 10° N 17:50:30 57° E 17:54:15 10° SSE
SL-14 R/B 3.3 17:47:43 10° S 17:51:33 57° E 17:55:29 10° NNE
Cosmos 1634 Rocket 4.0 17:45:52 10° N 17:52:04 80° E 17:58:13 10° S
Abrixas 2.3 17:50:13 10° WSW 17:53:09 90° NNW 17:55:48 12° ENE
Cosmos 1461 3.9 17:50:02 10° S 17:53:41 29° ESE 17:57:06 11° NE
Cosmos 2058 3.2 17:50:21 10° SSE 17:54:15 45° E 17:58:10 10° NNE
Cosmos 1484 Rocket 2.8 17:51:12 10° SSE 17:55:03 61° ENE 17:59:00 10° N
Cosmos 304 Rocket 4.2 17:56:32 10° S 18:01:01 41° ESE 18:05:31 10° NNE
Cosmos 2297 4.2 17:56:32 10° N 18:01:52 39° ENE 18:07:11 10° SE
Lacrosse 5 4.1 18:05:12 10° NNW 18:07:11 12° N 18:09:11 10° NNE
Cosmos 1844 Rocket 4.4 18:03:40 10° NW 18:08:50 38° WSW 18:13:58 10° S
Meteor 1-28 Rocket 3.2 18:11:43 10° NNE 18:15:23 56° E 18:19:02 10° S
Cosmos 1356 Rocket 4.0 18:12:24 10° SSE 18:15:58 32° E 18:19:10 12° NNE
OTV 4 2.9 18:13:54 10° WSW 18:16:10 20° SSW 18:18:25 10° SSE
Cosmos 1125 Rocket 4.0 18:11:28 10° NNW 18:16:37 64° WSW 18:21:44 10° S
Transit 2A Rocket 4.4 18:12:39 10° NNW 18:17:00 81° ENE 18:21:19 10° SSE
CZ-2C R/B 4.4 18:12:53 10° SSW 18:17:20 33° W 18:21:42 10° NNW
Meteor 2-10 3.9 18:12:38 10° N 18:17:46 78° E 18:23:00 10° SSE
CENTAUR R/B 4.1 18:12:45 10° W 18:18:07 29° NW 18:24:04 10° NNE
YAOGAN 1 4.3 18:14:49 10° SSW 18:18:48 37° W 18:22:50 10° NNW
COSMO-SKYMED 1 2.6 18:15:32 10° N 18:19:54 85° WNW 18:24:14 10° SSW
Cosmos 1707 Rocket 3.9 18:15:53 10° N 18:19:59 40° ENE 18:24:04 10° SSE
USA 229 DEB 4.4 18:14:47 10° S 18:20:40 32° ESE 18:24:43 18° ENE
USA 229 4.4 18:14:55 10° S 18:20:46 31° ESE 18:24:46 18° ENE
DMSP B5D1-3 4.4 18:16:13 10° NNE 18:21:18 69° ESE 18:26:22 10° S
Spot 2 Rocket 4.4 18:19:44 10° ESE 18:23:46 25° ENE 18:27:48 10° NNE
Resurs 01 Rocket 2.7 18:26:17 22° E 18:27:10 24° ENE 18:30:43 10° NNE
FENGYUN 3A 4.4 18:23:14 10° SE 18:27:48 30° ENE 18:32:25 10° N
Meteor 1-11 4.4 18:24:01 10° SSW 18:29:41 77° W 18:35:29 10° N
Cosmos 1666 Rocket 3.7 18:25:40 10° SSE 18:29:48 46° E 18:34:00 10° NNE
Lacrosse 5 rocket 1.2 18:26:24 10° NW 18:30:12 79° SW 18:34:14 10° SE
METEOR-M 4.1 18:27:39 10° SSE 18:32:55 62° ENE 18:38:13 10° N
Cosmos 1184 Rocket 3.4 18:30:08 10° SSE 18:33:12 34° E 18:33:17 34° E
Timation 1 Rocket 4.3 18:27:12 10° NNW 18:33:15 77° ENE 18:39:15 10° SSE
Cosmos 1538 Rocket 4.0 18:30:49 10° S 18:36:01 61° ESE 18:40:44 13° NNE
Cosmos 2151 4.3 18:32:22 10° SSW 18:36:19 40° WNW 18:40:18 10° N
Iridium 4 Rocket 3.7 18:35:04 10° SSE 18:39:08 33° E 18:39:48 31° ENE
Cosmos 2279 Rocket 4.2 18:34:34 10° N 18:40:46 73° W 18:46:57 10° S
FengYun 1-2 T 4.4 18:40:35 10° SE 18:45:51 46° ENE 18:51:07 10° N
ALOS 2.6 18:41:50 10° SE 18:46:11 41° ENE 18:50:34 10° N
NOAA 12 4.1 18:43:49 10° SSE 18:49:03 87° WSW 18:54:20 10° NNW
Cosmos 2333 Rocket 3.9 18:45:53 10° WSW 18:50:45 29° WNW 18:55:39 10° N
Cosmos 2219 Rocket 4.3 18:47:46 10° WSW 18:52:09 23° NW 18:56:33 10° N
Cosmos 1626 2.2 18:50:13 10° SSW 18:53:57 75° W 18:56:51 16° N
Cosmos 1603 4.1 18:49:23 10° S 18:54:29 37° ESE 18:55:01 36° E
SJ-6B 2.9 18:54:01 10° S 18:58:05 81° W 19:02:14 10° NNW
Nadezhda 4 Rocket 3.9 18:53:34 10° S 18:59:49 87° E 19:06:10 10° N
Cosmos 2242 Rocket 3.5 18:56:43 10° N 19:01:05 59° E 19:05:27 10° SSE
Cosmos 1703 4.4 18:58:37 10° SSW 19:02:20 44° W 19:06:06 10° N
Cosmos 2278 Rocket 4.1 18:58:17 10° NW 19:03:11 31° WSW 19:08:05 10° SSW
Cosmos 1455 2.3 19:02:53 10° NNW 19:06:41 74° W 19:10:29 10° S
SL-19 R/B 4.2 19:06:40 10° SSE 19:12:35 87° ENE 19:18:14 10° NNW
Lacrosse 4 Rocket 2.9 19:10:23 10° NNW 19:12:09 24° N 19:12:09 24° N
Cosmos 773 Rocket 3.9 19:12:09 10° SSW 19:17:18 85° WNW 19:19:20 39° NNE
FREGAT/IRIS 4.4 19:15:33 10° SSW 19:18:21 33° W 19:21:10 10° NNW
Cosmos 1092 Rocket 3.9 19:13:50 10° S 19:20:10 90° ESE 19:26:33 10° N
USA 215 3.3 19:21:35 28° SE 19:25:18 80° SW 19:31:53 10° NW
Sich 1 4.2 19:21:33 10° SSW 19:25:45 42° WNW 19:29:42 12° N
Cosmos 2237 Rocket 4.5 19:23:27 10° W 19:27:30 20° NW 19:31:36 10° N
Cosmos 2369 Rocket 3.9 19:27:42 10° N 19:29:27 19° N 19:29:27 19° N
Cosmos 1633 Rocket 4.3 19:29:06 10° SSW 19:33:14 39° WNW 19:36:07 18° NNW
SL-16 R/B 3.5 19:28:46 10° SW 19:33:59 38° WNW 19:37:58 16° N
Cosmos 2195 Rocket 4.3 19:39:18 10° S 19:45:24 88° W 19:46:13 69° N
Lacrosse 5 4.4 19:49:38 10° NNW 19:50:07 11° N 19:50:07 11° N
CZ-3A R/B 3.5 19:55:51 10° NW 20:00:19 55° SW 20:01:31 46° S
Resurs 01 Rocket 3.4 20:03:50 30° W 20:03:50 30° W 20:07:26 10° NW
USA 229 DEB 4.3 20:04:38 10° SW 20:11:18 52° NW 20:12:13 49° NNW
USA 229 4.2 20:04:43 10° SW 20:11:24 53° NW 20:12:16 50° NNW
